COSMOS 2251 DEB, 35771

Orbit data source: Space-Track

COSMOS 2251 DEB, 35771 is space debris in LEO originally from a launch on Wed, 16 Jun 1993 UTC launched from the Plesetsk Missile And Space Complex (PKMTR). The debris from Iridium 33, an American commercial communications satellite, has been tracked extensively since its accidental collision with the defunct Russian satellite Cosmos 2251 in 2009. This event, occurring at high speed in low Earth orbit (LEO), generated thousands of pieces of space debris, significantly increasing the risk of further collisions. The Iridium 33 debris cloud has impacted space traffic management and orbital debris mitigation strategies, making it a subject of ongoing study in space situational awareness.

Loading next visibility...
Identifier
35771, 1993-036ARR
Orbit
LEO
Country
Flag of CISCIS
Related business
Manufacturer
Unknown
Mission
Spacecraft
Bus & Motor
Unknown
Mass
Unknown
Launch date (UTC)
1993-06-16 (33 years ago)
Launch vehicle
Unknown
Launch site
Plesetsk Missile And Space Complex (PKMTR)
Object type
Payload
Rocket body
Debris
Shape & HBR
Unknown shape, 0.1 m
Radar Cross Section
Small (<0.1 m²)

Expand to show TLE details & history
Last TLE update: 7 hours ago

TLE from 7 hours ago
0 COSMOS 2251 DEB
1 35771U 93036ARR 26121.28436392  .00018183  00000-0  74287-2 0  9994
2 35771  74.1581  64.4315 0206372 323.7043  35.0244 14.16379936848340
Epoch: 2026-05-01T06:49Z
TLE epoch observation values (Epoch: 2026-05-01T06:49:29.042Z)
Latitude
-0.00006°
Longitude
102.84165°
Altitude
719.291 km
Speed
7.558 km/s
True Right ascension
04h 17m 43s
True Declination
0° 00' 00"
Sunlit
Object was in daylight at epoch
Visualization orbit readout
Latitude
Unknown
Longitude
Unknown
Altitude
Unknown
Speed
Unknown
Apparent Right ascension
Unknown
Apparent Declination
Unknown
Sunlit
N/A
Visualization observer readout
Local Sidereal Time
21:53:36
Azimuth
Unknown
Elevation
Unknown
Doppler factor
Unknown
Orbital elements
Apogee altitude
984.12 km
Perigee altitude
686.391 km
Semi-major axis
7,213.393 km
Eccentricity
0.02064
Inclination
74.1581°
RAAN
64.4315°
Arg. of periapsis
323.7043°
True anomaly
36.41078°
Mean anomaly
35.0244°
Eccentric anomaly
35.71464°
Mean motion
3.5427 °/min
Orbital period
101.62 mins
BSTAR
0.0074287
Loading maneuver chart data...
Computing Atmospheric mass density...

Documentation

Showing up to 5 results
|